Regional Weather Roundup
Issued by NWS

Home | Current Version | Previous Version | Text Only | Print | Product List | Glossary Off
Versions: 1 2 3 4 5 6 7 8 9 10 11 12 13 14 15 16 17 18 19 20 21 22 23 24 25 26 27 28 29 30 31 32 33 34 35 36 37 38 39 40 41 42 43 44 45 46 47 48 49 50

000
ASUS43 KMKX 161411
RWRWI

WISCONSIN REGIONAL WEATHER ROUNDUP
NATIONAL WEATHER SERVICE MILWAUKEE/SULLIVAN WI
900 AM CDT WED APR 16 2014

NOTE: "FAIR" INDICATES FEW OR NO CLOUDS BELOW 12,000 FEET WITH NO
SIGNIFICANT WEATHER AND/OR OBSTRUCTIONS TO VISIBILITY.

WIZ001-002-006>008-014>016-023>028-161500-
NORTHWEST WISCONSIN

CITY           SKY/WX    TMP DP  RH WIND       PRES   REMARKS
SUPERIOR ARPT  CLOUDY    29  15  58 E8        30.19R WCI  21
ASHLAND        CLOUDY    26  11  52 E5        30.21R WCI  20
HAYWARD        SNOW      26  22  84 E7        30.13F VSB 1/2 WCI  18
SIREN          SNOW      28  26  93 E10G17    30.08F VSB 1/2 WCI  18
RICE LAKE      SNOW      28  26  90 E16       30.09F VSB 1/4 WCI  16
LADYSMITH      SNOW      28  26  91 E10       30.15F VSB 1/2 WCI  18
EAU CLAIRE     CLOUDY    31  23  72 E17G24    30.06F WCI  19
MENOMONIE      CLOUDY    31  24  73 E15G22    30.07R WCI  21
NEW RICHMOND   LGT SNOW  30  25  82 E18G28    30.01F WCI  17
OSCEOLA        LGT SNOW  30  26  87 E21       30.03F WCI  17
$$

WIZ003>005-009-010-017-018-161500-
NORTH CENTRAL WISCONSIN

CITY           SKY/WX    TMP DP  RH WIND       PRES   REMARKS
WOODRUFF       LGT SNOW  27  17  66 SE8       30.18S WCI  18
RHINELANDER    LGT SNOW  24  18  77 SE9       30.19S WCI  14
EAGLE RIVER    CLOUDY    24  14  63 S5        30.20S WCI  19
LAND O LAKES   CLOUDY    25  14  64 S6        30.20S WCI  18
PHILLIPS       LGT SNOW  24  21  90 SE8       30.16R VSB 1   WCI  15
TOMAHAWK       LGT SNOW  24  21  87 SE6       30.19R VSB 3/4 WCI  17
MEDFORD        LGT SNOW  26  23  87 SE12G18   30.14S WCI  16
MERRILL        LGT SNOW  26  23  89 CALM      30.20S VSB 3/4
$$

WIZ029-030-035-036-043>047-161500-
CENTRAL WISCONSIN

CITY           SKY/WX    TMP DP  RH WIND       PRES   REMARKS
WAUSAU         MIX PCPN  27  22  81 SE13      30.18F WCI  16
MOSINEE        CLOUDY    27  25  93 E7        30.20  WCI  19
MARSHFIELD     LGT SNOW  29  21  72 SE17      30.15F WCI  17
STEVENS POINT  CLOUDY    28  21  74 SE13      30.20F WCI  17
WAUPACA        CLOUDY    36  27  69 E12       30.23F WCI  27
WAUTOMA        CLOUDY    33  23  67 SE10      30.22F WCI  25
WISC RAPIDS    CLOUDY    31  21  66 SE10      30.19F WCI  22
CAMP DOUGLAS   SNOWSHWR  32  25  74 SE15G21   30.14F WCI  22
$$

WIZ011>013-019>022-031-037>040-048>050-161500-
NORTHEAST WISCONSIN

CITY           SKY/WX    TMP DP  RH WIND       PRES   REMARKS
ANTIGO         LGT SNOW  23  20  89 SE9       30.21F VSB 3/4 WCI  13
STURGEON BAY   CLOUDY    34  21  60 S16       30.31S WCI  23
GREEN BAY      CLOUDY    32  27  81 S12       30.29S WCI  23
MANITOWOC      LGT RAIN  34  27  75 S14       30.32R WCI  25
APPLETON       CLOUDY    32  25  74 SE7       30.27S WCI  26
CLINTONVILLE   LGT SNOW  30  28  93 SE6       30.26F WCI  24
OSHKOSH        CLOUDY    33  26  75 SE9       30.25S WCI  25
$$

WIZ032>034-041-042-053>061-161500-
SOUTHWEST WISCONSIN

CITY           SKY/WX    TMP DP  RH WIND       PRES   REMARKS
LA CROSSE      CLOUDY    38  20  48 SE16G25   30.05F WCI  29
SPARTA         CLOUDY    34  22  61 E12G20    30.10F WCI  25
VIROQUA        FAIR      34  22  62 SE20      30.06F WCI  22
BOSCOBEL       CLOUDY    39  22  50 VRB5      30.12F
PRAIRIE DU CHI CLOUDY    39  22  51 SE14G20   30.08F WCI  31
PLATTEVILLE    FAIR      37  25  63 SE16      30.13F WCI  27
$$

WIZ056-057-062-063-064-067-068-161500-
SOUTH CENTRAL WISCONSIN

CITY           SKY/WX    TMP DP  RH WIND       PRES   REMARKS
BARABOO/DELLS  CLOUDY    33  22  63 SE14      30.16F WCI  24
LONE ROCK      CLOUDY    37  23  56 SE12      30.16F WCI  29
WATERTOWN      PTSUNNY   34  25  70 SE8       30.24S WCI  27
MADISON        CLOUDY    36  23  59 SE15      30.21F WCI  27
MIDDLETON      CLOUDY    37  22  56 SE13G18   30.19F WCI  28
MONROE         PTSUNNY   35  25  67 SE18      30.18S WCI  25
JANESVILLE     CLOUDY    37  25  60 S13G18    30.22F WCI  29
$$

WIZ051-052-058>065-066-070>072-161500-
SOUTHEAST WISCONSIN

CITY           SKY/WX    TMP DP  RH WIND       PRES   REMARKS
MILWAUKEE      PTSUNNY   37  22  54 S13       30.29S WCI  29
WAUKESHA       NOT AVBL
MILWAUKEE/TIMM CLOUDY    36  21  55 S9        30.30R WCI  29
RACINE         SUNNY     38  26  62 S14G20    30.31S WCI  30
BURLINGTON     SUNNY     36  25  64 S9        30.27S WCI  29
KENOSHA        SUNNY     37  24  59 S10       30.28F WCI  30
FOND DU LAC    CLOUDY    34  25  69 SE12      30.26S WCI  25
SHEBOYGAN      CLOUDY    34  29  82 S7        30.30R WCI  28
WEST BEND      CLOUDY    34  23  64 SE10      30.27F WCI  26
JUNEAU         PTSUNNY   33  23  65 SE10      30.25F WCI  25
$$

LSZ147-162-161500-
LAKE SUPERIOR

STATION/POSITION TIME  TEMP    WIND        PRES    WAVE
                       AIR SEA DIR/SP/G            HT/PER
                 (UTC) (F)     (DEG/KT/KT) (MB)    (FT/S)
DEVILS ISLAND    1400   26      80/  7/  8 1024.6R
PORT WING        1340   30     130/  3/  7 1022.4R
SAXON HARBOR     1300          170/  2/  8 1022.4R
$$

LMZ867-665-643>646-161500-
LAKE MICHIGAN

STATION/POSITION TIME  TEMP    WIND        PRES    WAVE
                       AIR SEA DIR/SP/G            HT/PER
                 (UTC) (F)     (DEG/KT/KT) (MB)    (FT/S)
NORTHPORT PIER   1300   31     140/  4/  6 1026.4R
SISTER BAY       1309   38        CALM       N/A
KEWAUNEE LAKESHO 1300   33     170/ 16/ 18 1027.0R
SHEBOYGAN LAKESH 1400   35     150/ 18/ 19 1027.1R
PORT WASHINGTON  1300   35     160/ 12/ 15 1026.1R
MILWAUKEE LAKESH 1300   35     180/ 12/ 14   N/A
KENOSHA   LAKESH 1400   36     170/ 18/ 21   N/A
$$

TC  - TEMPERATURE IN CELSIUS
VSB - VISIBILITY IN STATUTE MILES
WCI - WIND CHILL INDEX
HX  - HEAT INDEX




USA.gov is the U.S. government's official web portal to all federal, state and local government web resources and services.